Cairo, Egypt

7:21 AM EET on January 23, 2017 (GMT +0200)
Cairo

Weather History for 62366 - January, 2014

Change the Weather History Date:

Tuesday, January 21, 2014

  Actual Average Record
Temperature  
Mean Temperature 62 °F -  
Max Temperature 71 °F 65 °F - ()
Min Temperature 53 °F 49 °F - ()
Degree Days  
Heating Degree Days 3    
Growing Degree Days 12 (Base 50)    
Moisture  
Dew Point 42 °F    
Average Humidity 48    
Maximum Humidity 67    
Minimum Humidity 22    
Precipitation  
Precipitation 0.00 in 0.01 in - ()
Sea Level Pressure  
Sea Level Pressure 30.08 in    
Wind  
Wind Speed 3 mph ()    
Max Wind Speed 7 mph    
Max Gust Speed -    
Visibility 3.0 miles    
Events      
T = Trace of Precipitation, MM = Missing Value Source: Averaged Metar Reports

Daily Weather History Graph

Daily Weather History Graph

Search for Another Location

Airport or City:

Trip Planner

Search our weather history database for the weather conditions in past years. The results will help you decide how hot, cold, wet, or windy it might be!

Date:

Astronomy

Jan. 21, 2014 Rise Set
Actual Time 6:49 AM EET 5:21 PM EET
Civil Twilight 6:24 AM EET 5:47 PM EET
Nautical Twilight 5:55 AM EET 6:16 PM EET
Astronomical Twilight 5:26 AM EET 6:45 PM EET
Moon 10:09 PM EET (1/21) 9:32 AM EET (1/21)
Length of Visible Light 11h 22m
Length of Day
10h 31m
Waning Gibbous, 77% of the Moon is Illuminated
Jan 21
Waning Gibbous
Jan 24
Last Quarter
Jan 30
New
Feb 6
First Quarter
Feb 15
Full

Hourly Weather History & Observations

Time (EET) Temp. Dew Point Humidity Pressure Visibility Wind Dir Wind Speed Gust Speed Precip Events Conditions
12:00 AM 59.0 °F 42.8 °F 55% 30.12 in - ESE 6.9 mph - N/A   Clear
12:30 AM 59.0 °F 41.0 °F 51% 30.09 in - ESE 5.8 mph - N/A   Clear
1:00 AM 59.0 °F 41.0 °F 51% 30.09 in - ESE 6.9 mph - N/A   Clear
1:30 AM 59.0 °F 39.2 °F 48% 30.09 in - ESE 6.9 mph - N/A   Clear
2:00 AM 58 °F 40 °F 39% 30.11 in 6 mi ESE 5.8 mph - -   Partly Cloudy
2:00 AM 59.0 °F 39.2 °F 48% 30.09 in - ESE 5.8 mph - N/A   Clear
2:30 AM 59.0 °F 39.2 °F 48% 30.09 in - ESE 5.8 mph - N/A   Clear
3:00 AM 57.2 °F 39.2 °F 51% 30.09 in - SSE 6.9 mph - N/A   Clear
3:30 AM 57.2 °F 39.2 °F 51% 30.09 in - SSE 6.9 mph - N/A   Clear
4:00 AM 55.4 °F 39.2 °F 54% 30.09 in - Calm Calm - N/A   Clear
4:30 AM 55.4 °F 39.2 °F 54% 30.09 in - Calm Calm - N/A   Clear
5:00 AM 55.4 °F 39.2 °F 54% 30.09 in - Calm Calm - N/A   Clear
5:30 AM 55.4 °F 42.8 °F 63% 30.01 in - Calm Calm - N/A   Clear
6:00 AM 55.4 °F 42.8 °F 63% 30.09 in - Calm Calm - N/A   Clear
6:30 AM 53.6 °F 41.0 °F 62% 30.09 in - Calm Calm - N/A   Clear
7:00 AM 55.4 °F 42.8 °F 63% 30.09 in 3.7 mi Calm Calm - N/A   Unknown
7:30 AM 53.6 °F 42.8 °F 67% 30.09 in 2.5 mi Calm Calm - N/A   Haze
8:00 AM 54 °F 42 °F 54% 30.13 in 1 mi Calm Calm - -   Haze
8:00 AM 53.6 °F 42.8 °F 67% 30.12 in 1.2 mi Calm Calm - N/A   Haze
8:30 AM 55.4 °F 44.6 °F 67% 30.09 in 1.2 mi Calm Calm - N/A   Haze
9:00 AM 59.0 °F 46.4 °F 63% 30.12 in 1.2 mi Calm Calm - N/A   Haze
9:30 AM 59.0 °F 46.4 °F 63% 30.12 in 1.2 mi Calm Calm - N/A   Haze
10:00 AM 64.4 °F 46.4 °F 52% 30.12 in 1.2 mi Calm Calm - N/A   Haze
10:30 AM 64.4 °F 46.4 °F 52% 30.12 in 1.2 mi Calm Calm - N/A   Haze
11:00 AM 67 °F 46 °F 35% 30.12 in 2 mi Calm Calm - -   Haze
11:00 AM 68.0 °F 46.4 °F 46% 30.12 in 1.9 mi Calm Calm - N/A   Haze
11:30 AM 68.0 °F 42.8 °F 40% 30.09 in 2.5 mi Calm Calm - N/A   Haze
12:00 PM 69.8 °F 41.0 °F 35% 30.09 in 2.5 mi Calm Calm - N/A   Haze
12:30 PM 69.8 °F 37.4 °F 31% 30.06 in 2.5 mi WNW 2.3 mph - N/A   Haze
1:00 PM 71.6 °F 37.4 °F 29% 30.06 in 2.5 mi Calm Calm - N/A   Haze
1:30 PM 71.6 °F 39.2 °F 31% 30.04 in 2.5 mi Calm Calm - N/A   Haze
2:00 PM 70 °F 40 °F 22% 30.04 in 4 mi Calm Calm - -   Haze
2:00 PM 69.8 °F 39.2 °F 33% 30.04 in 3.7 mi Calm Calm - N/A   Unknown
2:30 PM 71.6 °F 39.2 °F 31% 30.04 in 3.7 mi NW 3.5 mph - N/A   Unknown
3:00 PM 71.6 °F 39.2 °F 31% 30.04 in 3.7 mi Calm Calm - N/A   Unknown
3:30 PM 71.6 °F 39.2 °F 31% 30.04 in 3.7 mi WNW 4.6 mph - N/A   Unknown
4:00 PM 69.8 °F 42.8 °F 38% 30.04 in 3.7 mi WNW 4.6 mph - N/A   Unknown
4:30 PM 69.8 °F 42.8 °F 38% 30.04 in - WNW 4.6 mph - N/A   Clear
5:00 PM 69 °F 43 °F 28% 30.05 in 6 mi NNW 3.5 mph - -   Partly Cloudy
5:00 PM 68.0 °F 42.8 °F 40% 30.04 in - NNW 3.5 mph - N/A   Clear
5:30 PM 68.0 °F 42.8 °F 40% 30.06 in - NNW 3.5 mph - N/A   Clear
6:00 PM 66.2 °F 44.6 °F 46% 30.06 in - North 3.5 mph - N/A   Clear
6:30 PM 64.4 °F 42.8 °F 45% 30.06 in - NNE 3.5 mph - N/A   Clear
7:00 PM 62.6 °F 42.8 °F 48% 30.06 in - NNE 3.5 mph - N/A   Clear
7:30 PM 62.6 °F 44.6 °F 52% 30.06 in 3.7 mi East 3.5 mph - N/A   Unknown
8:00 PM 62 °F 44 °F 40% 30.10 in 4 mi East 4.6 mph - -   Haze
8:00 PM 62.6 °F 44.6 °F 52% 30.06 in 3.7 mi East 4.6 mph - N/A   Unknown
8:30 PM 60.8 °F 42.8 °F 52% 30.06 in 3.7 mi East 5.8 mph - N/A   Unknown
9:00 PM 60.8 °F 42.8 °F 52% 30.06 in 3.7 mi East 6.9 mph - N/A   Unknown
9:30 PM 60.8 °F 42.8 °F 52% 30.06 in 3.7 mi East 6.9 mph - N/A   Unknown
10:00 PM 60.8 °F 44.6 °F 55% 30.06 in 3.7 mi East 6.9 mph - N/A   Unknown
10:30 PM 59.0 °F 44.6 °F 59% 30.06 in 3.7 mi Calm Calm - N/A   Unknown
11:00 PM 59 °F 45 °F 48% 30.09 in 4 mi ESE 1.2 mph - -   Haze
11:00 PM 59.0 °F 44.6 °F 59% 30.06 in 3.7 mi North 1.2 mph - N/A   Unknown
11:30 PM 59.0 °F 44.6 °F 59% 30.06 in 3.7 mi Calm Calm - N/A   Unknown